iso_date,epoch_date,Year,Hour,Min,DOY,POS_DOY,Lat,Lon,BP,Ts,Ta,has_bp,has_ts,has_ta,BuoyID,Buoy_Type,Buoy_Owner,Logistics,Hemisphere
2011-03-08T23:29:45Z,1299626986,2011,23,30,67.979,67.979,-90.0,-180.0,1026.1,-999.00,-999.0,yes,no,no,300234010853910,UPTEMPO,PSC-UPTEMPO,Louis,North
2011-03-09T00:00:00Z,1299628800,2011,0,0,68.0,68.0,-90.0,-180.0,1026.2,-999.00,-999.0,yes,no,no,300234010853910,UPTEMPO,PSC-UPTEMPO,Louis,North
2011-03-09T01:00:28Z,1299632429,2011,1,0,68.042,68.042,-90.0,-180.0,1026.2,-999.00,-999.0,yes,no,no,300234010853910,UPTEMPO,PSC-UPTEMPO,Louis,North
2011-03-09T01:59:31Z,1299635971,2011,2,0,68.083,68.083,-90.0,-180.0,1026.1,-999.00,-999.0,yes,no,no,300234010853910,UPTEMPO,PSC-UPTEMPO,Louis,North
2011-03-09T03:00:00Z,1299639600,2011,3,0,68.125,68.125,74.83698,-162.42912,1026.1,-999.00,-999.0,yes,no,no,300234010853910,UPTEMPO,PSC-UPTEMPO,Louis,North
2011-03-12T19:29:16Z,1299958157,2011,19,30,71.812,71.812,-90.0,-180.0,1018.6,-999.00,-999.0,yes,no,no,300234010853910,UPTEMPO,PSC-UPTEMPO,Louis,North
2011-03-12T19:59:31Z,1299959971,2011,20,0,71.833,71.833,-90.0,-180.0,1018.7,-999.00,-999.0,yes,no,no,300234010853910,UPTEMPO,PSC-UPTEMPO,Louis,North
2011-03-12T21:00:00Z,1299963600,2011,21,0,71.875,71.875,74.99196,-163.16694,1018.5,-999.00,-999.0,yes,no,no,300234010853910,UPTEMPO,PSC-UPTEMPO,Louis,North
2011-03-14T14:29:45Z,1300112986,2011,14,30,73.604,73.604,-90.0,-180.0,1019.8,-999.00,-999.0,yes,no,no,300234010853910,UPTEMPO,PSC-UPTEMPO,Louis,North
2011-03-14T15:00:00Z,1300114800,2011,15,0,73.625,73.625,-90.0,-180.0,1020.2,-999.00,-999.0,yes,no,no,300234010853910,UPTEMPO,PSC-UPTEMPO,Louis,North
2011-03-14T16:00:28Z,1300118429,2011,16,0,73.667,73.667,-90.0,-180.0,1024.5,-999.00,-999.0,yes,no,no,300234010853910,UPTEMPO,PSC-UPTEMPO,Louis,North
2011-03-14T16:59:31Z,1300121971,2011,17,0,73.708,73.708,-90.0,-180.0,1023.3,-999.00,-999.0,yes,no,no,300234010853910,UPTEMPO,PSC-UPTEMPO,Louis,North
2011-03-14T18:00:00Z,1300125600,2011,18,0,73.75,73.75,74.9232,-162.73116,1020.6,-999.00,-999.0,yes,no,no,300234010853910,UPTEMPO,PSC-UPTEMPO,Louis,North
2011-09-28T23:15:21Z,1317251722,2011,23,15,271.969,271.969,71.25138,-135.03114,1016.0,-999.00,-999.0,yes,no,no,300234010853910,UPTEMPO,PSC-UPTEMPO,Louis,North
2011-09-29T00:00:00Z,1317254400,2011,0,0,272.0,272.0,71.1891,-135.47628,1016.1,-999.00,-999.0,yes,no,no,300234010853910,UPTEMPO,PSC-UPTEMPO,Louis,North
2011-09-29T01:00:28Z,1317258029,2011,1,0,272.042,272.042,71.1891,-135.47628,1016.0,-999.00,-999.0,yes,no,no,300234010853910,UPTEMPO,PSC-UPTEMPO,Louis,North
2011-09-29T01:59:31Z,1317261571,2011,2,0,272.083,272.083,71.1891,-135.47628,1016.0,-999.00,-999.0,yes,no,no,300234010853910,UPTEMPO,PSC-UPTEMPO,Louis,North
2011-09-29T03:00:00Z,1317265200,2011,3,0,272.125,272.125,70.94772,-137.12094,1015.9,-999.00,-999.0,yes,no,no,300234010853910,UPTEMPO,PSC-UPTEMPO,Louis,North
2011-09-29T04:00:28Z,1317268829,2011,4,0,272.167,272.167,70.94772,-137.12094,1015.8,-999.00,-999.0,yes,no,no,300234010853910,UPTEMPO,PSC-UPTEMPO,Louis,North
2011-09-29T04:59:31Z,1317272371,2011,5,0,272.208,272.208,70.94772,-137.12094,1015.4,-999.00,-999.0,yes,no,no,300234010853910,UPTEMPO,PSC-UPTEMPO,Louis,North
2011-09-29T06:00:00Z,1317276000,2011,6,0,272.25,272.25,70.77852,-138.75642,1015.2,-999.00,-999.0,yes,no,no,300234010853910,UPTEMPO,PSC-UPTEMPO,Louis,North
2011-09-29T07:00:28Z,1317279629,2011,7,0,272.292,272.292,70.77852,-138.75642,1014.7,-999.00,-999.0,yes,no,no,300234010853910,UPTEMPO,PSC-UPTEMPO,Louis,North
2011-09-29T07:59:31Z,1317283171,2011,8,0,272.333,272.333,70.77852,-138.75642,1014.3,-999.00,-999.0,yes,no,no,300234010853910,UPTEMPO,PSC-UPTEMPO,Louis,North
2011-09-29T09:00:00Z,1317286800,2011,9,0,272.375,272.375,70.71048,-140.47362,1014.0,-999.00,-999.0,yes,no,no,300234010853910,UPTEMPO,PSC-UPTEMPO,Louis,North
2011-09-29T10:00:28Z,1317290429,2011,10,0,272.417,272.417,70.71048,-140.47362,1013.7,-999.00,-999.0,yes,no,no,300234010853910,UPTEMPO,PSC-UPTEMPO,Louis,North
2011-09-29T10:59:31Z,1317293971,2011,11,0,272.458,272.458,70.71048,-140.47362,1013.4,-999.00,-999.0,yes,no,no,300234010853910,UPTEMPO,PSC-UPTEMPO,Louis,North
2011-09-29T12:00:00Z,1317297600,2011,12,0,272.5,272.5,70.8264,-142.19226,1012.9,-999.00,-999.0,yes,no,no,300234010853910,UPTEMPO,PSC-UPTEMPO,Louis,North
2011-09-29T13:00:28Z,1317301229,2011,13,0,272.542,272.542,70.8264,-142.19226,1012.4,-999.00,-999.0,yes,no,no,300234010853910,UPTEMPO,PSC-UPTEMPO,Louis,North
2011-09-29T13:59:31Z,1317304771,2011,14,0,272.583,272.583,70.8264,-142.19226,1012.0,-999.00,-999.0,yes,no,no,300234010853910,UPTEMPO,PSC-UPTEMPO,Louis,North
2011-09-29T15:00:00Z,1317308400,2011,15,0,272.625,272.625,70.98966,-143.88138,1011.4,-999.00,-999.0,yes,no,no,300234010853910,UPTEMPO,PSC-UPTEMPO,Louis,North
2011-09-29T16:00:28Z,1317312029,2011,16,0,272.667,272.667,70.98966,-143.88138,1011.1,-999.00,-999.0,yes,no,no,300234010853910,UPTEMPO,PSC-UPTEMPO,Louis,North
2011-09-29T16:59:31Z,1317315571,2011,17,0,272.708,272.708,70.98966,-143.88138,1010.3,-999.00,-999.0,yes,no,no,300234010853910,UPTEMPO,PSC-UPTEMPO,Louis,North
2011-09-29T18:00:00Z,1317319200,2011,18,0,272.75,272.75,71.109,-145.64178,1009.9,-999.00,-999.0,yes,no,no,300234010853910,UPTEMPO,PSC-UPTEMPO,Louis,North
2011-09-29T19:00:28Z,1317322829,2011,19,0,272.792,272.792,71.109,-145.64178,1009.4,-999.00,-999.0,yes,no,no,300234010853910,UPTEMPO,PSC-UPTEMPO,Louis,North
2011-09-29T19:59:31Z,1317326371,2011,20,0,272.833,272.833,71.109,-145.64178,1008.9,-999.00,-999.0,yes,no,no,300234010853910,UPTEMPO,PSC-UPTEMPO,Louis,North
2011-09-29T21:00:00Z,1317330000,2011,21,0,272.875,272.875,71.2035,-147.42072,1008.5,-999.00,-999.0,yes,no,no,300234010853910,UPTEMPO,PSC-UPTEMPO,Louis,North
2011-09-29T22:00:28Z,1317333629,2011,22,0,272.917,272.917,71.2035,-147.42072,1007.7,-999.00,-999.0,yes,no,no,300234010853910,UPTEMPO,PSC-UPTEMPO,Louis,North
2011-09-29T22:59:31Z,1317337171,2011,23,0,272.958,272.958,71.2035,-147.42072,1007.1,-999.00,-999.0,yes,no,no,300234010853910,UPTEMPO,PSC-UPTEMPO,Louis,North
2011-09-30T00:00:00Z,1317340800,2011,0,0,273.0,273.0,71.34408,-149.13414,1006.5,-999.00,-999.0,yes,no,no,300234010853910,UPTEMPO,PSC-UPTEMPO,Louis,North
2011-09-30T01:00:28Z,1317344429,2011,1,0,273.042,273.042,71.34408,-149.13414,1005.8,-999.00,-999.0,yes,no,no,300234010853910,UPTEMPO,PSC-UPTEMPO,Louis,North
2011-09-30T01:59:31Z,1317347971,2011,2,0,273.083,273.083,71.34408,-149.13414,1005.2,-999.00,-999.0,yes,no,no,300234010853910,UPTEMPO,PSC-UPTEMPO,Louis,North
2011-09-30T03:00:00Z,1317351600,2011,3,0,273.125,273.125,71.56278,-150.82902,1004.5,-999.00,-999.0,yes,no,no,300234010853910,UPTEMPO,PSC-UPTEMPO,Louis,North
2011-09-30T04:00:28Z,1317355229,2011,4,0,273.167,273.167,71.56278,-150.82902,1004.2,-999.00,-999.0,yes,no,no,300234010853910,UPTEMPO,PSC-UPTEMPO,Louis,North
2011-09-30T04:59:31Z,1317358771,2011,5,0,273.208,273.208,71.56278,-150.82902,1003.8,-999.00,-999.0,yes,no,no,300234010853910,UPTEMPO,PSC-UPTEMPO,Louis,North
2011-09-30T06:00:00Z,1317362400,2011,6,0,273.25,273.25,71.83422,-152.46432,1003.3,-999.00,-999.0,yes,no,no,300234010853910,UPTEMPO,PSC-UPTEMPO,Louis,North
2011-09-30T07:00:28Z,1317366029,2011,7,0,273.292,273.292,71.83422,-152.46432,1002.9,-999.00,-999.0,yes,no,no,300234010853910,UPTEMPO,PSC-UPTEMPO,Louis,North
2011-09-30T07:59:31Z,1317369571,2011,8,0,273.333,273.333,71.83422,-152.46432,1002.5,-999.00,-999.0,yes,no,no,300234010853910,UPTEMPO,PSC-UPTEMPO,Louis,North
2011-09-30T09:00:00Z,1317373200,2011,9,0,273.375,273.375,72.12798,-154.0998,1002.3,-999.00,-999.0,yes,no,no,300234010853910,UPTEMPO,PSC-UPTEMPO,Louis,North
2011-09-30T10:00:28Z,1317376829,2011,10,0,273.417,273.417,72.12798,-154.0998,1002.0,-999.00,-999.0,yes,no,no,300234010853910,UPTEMPO,PSC-UPTEMPO,Louis,North
2011-09-30T10:59:31Z,1317380371,2011,11,0,273.458,273.458,72.12798,-154.0998,1001.7,-999.00,-999.0,yes,no,no,300234010853910,UPTEMPO,PSC-UPTEMPO,Louis,North
2011-09-30T12:00:00Z,1317384000,2011,12,0,273.5,273.5,72.56394,-155.00952,1001.3,-999.00,-999.0,yes,no,no,300234010853910,UPTEMPO,PSC-UPTEMPO,Louis,North
2011-09-30T13:00:28Z,1317387629,2011,13,0,273.542,273.542,72.56394,-155.00952,1001.2,-999.00,-999.0,yes,no,no,300234010853910,UPTEMPO,PSC-UPTEMPO,Louis,North
2011-09-30T13:59:31Z,1317391171,2011,14,0,273.583,273.583,72.56394,-155.00952,1000.9,-999.00,-999.0,yes,no,no,300234010853910,UPTEMPO,PSC-UPTEMPO,Louis,North
2011-09-30T15:00:00Z,1317394800,2011,15,0,273.625,273.625,72.8064,-155.02914,1001.6,-999.00,-999.0,yes,no,no,300234010853910,UPTEMPO,PSC-UPTEMPO,Louis,North
2011-09-30T16:00:28Z,1317398429,2011,16,0,273.667,273.667,72.8064,-155.02914,1001.5,-999.00,-999.0,yes,no,no,300234010853910,UPTEMPO,PSC-UPTEMPO,Louis,North
2011-09-30T16:59:31Z,1317401971,2011,17,0,273.708,273.708,72.8064,-155.02914,1001.5,-999.00,-999.0,yes,no,no,300234010853910,UPTEMPO,PSC-UPTEMPO,Louis,North
2011-09-30T18:00:00Z,1317405600,2011,18,0,273.75,273.75,72.79416,-155.13336,1001.5,-999.00,-999.0,yes,no,no,300234010853910,UPTEMPO,PSC-UPTEMPO,Louis,North
2011-09-30T19:00:28Z,1317409229,2011,19,0,273.792,273.792,72.79416,-155.13336,1001.4,-999.00,-999.0,yes,no,no,300234010853910,UPTEMPO,PSC-UPTEMPO,Louis,North
2011-09-30T19:59:31Z,1317412771,2011,20,0,273.833,273.833,72.79416,-155.13336,1001.4,-999.00,-999.0,yes,no,no,300234010853910,UPTEMPO,PSC-UPTEMPO,Louis,North
2011-09-30T21:00:00Z,1317416400,2011,21,0,273.875,273.875,72.7785,-155.2374,1001.5,-999.00,-999.0,yes,no,no,300234010853910,UPTEMPO,PSC-UPTEMPO,Louis,North
2011-09-30T22:00:28Z,1317420029,2011,22,0,273.917,273.917,72.7785,-155.2374,1001.5,-999.00,-999.0,yes,no,no,300234010853910,UPTEMPO,PSC-UPTEMPO,Louis,North
2011-09-30T22:59:31Z,1317423571,2011,23,0,273.958,273.958,72.7785,-155.2374,1001.5,-999.00,-999.0,yes,no,no,300234010853910,UPTEMPO,PSC-UPTEMPO,Louis,North
2011-10-01T00:00:00Z,1317427200,2011,0,0,274.0,274.0,72.76392,-155.34252,1001.5,-999.00,-999.0,yes,no,no,300234010853910,UPTEMPO,PSC-UPTEMPO,Louis,North
2011-10-01T01:00:28Z,1317430829,2011,1,0,274.042,274.042,72.76392,-155.34252,1001.3,-999.00,-999.0,yes,no,no,300234010853910,UPTEMPO,PSC-UPTEMPO,Louis,North
2011-10-01T01:59:31Z,1317434371,2011,2,0,274.083,274.083,72.76392,-155.34252,1001.2,-999.00,-999.0,yes,no,no,300234010853910,UPTEMPO,PSC-UPTEMPO,Louis,North
2011-10-01T03:00:00Z,1317438000,2011,3,0,274.125,274.125,72.7533,-155.4489,1001.0,-999.00,-999.0,yes,no,no,300234010853910,UPTEMPO,PSC-UPTEMPO,Louis,North
2011-10-01T04:00:28Z,1317441629,2011,4,0,274.167,274.167,72.7533,-155.4489,1000.8,-999.00,-999.0,yes,no,no,300234010853910,UPTEMPO,PSC-UPTEMPO,Louis,North
2011-10-01T04:59:31Z,1317445171,2011,5,0,274.208,274.208,72.7533,-155.4489,1000.8,-999.00,-999.0,yes,no,no,300234010853910,UPTEMPO,PSC-UPTEMPO,Louis,North
2011-10-01T06:00:00Z,1317448800,2011,6,0,274.25,274.25,72.74466,-155.547,1000.9,-999.00,-999.0,yes,no,no,300234010853910,UPTEMPO,PSC-UPTEMPO,Louis,North
2011-10-01T07:00:28Z,1317452429,2011,7,0,274.292,274.292,72.74466,-155.547,1000.9,-999.00,-999.0,yes,no,no,300234010853910,UPTEMPO,PSC-UPTEMPO,Louis,North
2011-10-01T07:59:31Z,1317455971,2011,8,0,274.333,274.333,72.74466,-155.547,1001.0,-999.00,-999.0,yes,no,no,300234010853910,UPTEMPO,PSC-UPTEMPO,Louis,North
2011-10-01T09:00:00Z,1317459600,2011,9,0,274.375,274.375,72.7326,-155.63916,1001.2,-999.00,-999.0,yes,no,no,300234010853910,UPTEMPO,PSC-UPTEMPO,Louis,North
2011-10-01T10:00:28Z,1317463229,2011,10,0,274.417,274.417,72.7326,-155.63916,1001.1,-999.00,-999.0,yes,no,no,300234010853910,UPTEMPO,PSC-UPTEMPO,Louis,North
2011-10-01T10:59:31Z,1317466771,2011,11,0,274.458,274.458,72.7326,-155.63916,1000.9,-999.00,-999.0,yes,no,no,300234010853910,UPTEMPO,PSC-UPTEMPO,Louis,North
2011-10-01T12:00:00Z,1317470400,2011,12,0,274.5,274.5,72.72288,-155.75634,1000.5,-999.00,-999.0,yes,no,no,300234010853910,UPTEMPO,PSC-UPTEMPO,Louis,North
2011-10-01T13:00:28Z,1317474029,2011,13,0,274.542,274.542,72.72288,-155.75634,999.9,-999.00,-999.0,yes,no,no,300234010853910,UPTEMPO,PSC-UPTEMPO,Louis,North
2011-10-01T13:59:31Z,1317477571,2011,14,0,274.583,274.583,72.72288,-155.75634,999.6,-999.00,-999.0,yes,no,no,300234010853910,UPTEMPO,PSC-UPTEMPO,Louis,North
2011-10-01T15:00:00Z,1317481200,2011,15,0,274.625,274.625,72.72252,-155.88972,998.9,-999.00,-999.0,yes,no,no,300234010853910,UPTEMPO,PSC-UPTEMPO,Louis,North
2011-10-01T16:00:28Z,1317484829,2011,16,0,274.667,274.667,72.72252,-155.88972,998.9,-999.00,-999.0,yes,no,no,300234010853910,UPTEMPO,PSC-UPTEMPO,Louis,North
2011-10-01T16:59:31Z,1317488371,2011,17,0,274.708,274.708,72.72252,-155.88972,998.9,-999.00,-999.0,yes,no,no,300234010853910,UPTEMPO,PSC-UPTEMPO,Louis,North
2011-10-01T18:00:00Z,1317492000,2011,18,0,274.75,274.75,72.72684,-155.98584,999.2,-999.00,-999.0,yes,no,no,300234010853910,UPTEMPO,PSC-UPTEMPO,Louis,North
2011-10-01T19:00:28Z,1317495629,2011,19,0,274.792,274.792,72.72684,-155.98584,999.5,-999.00,-999.0,yes,no,no,300234010853910,UPTEMPO,PSC-UPTEMPO,Louis,North
2011-10-01T19:59:31Z,1317499171,2011,20,0,274.833,274.833,72.72684,-155.98584,999.9,-999.00,-999.0,yes,no,no,300234010853910,UPTEMPO,PSC-UPTEMPO,Louis,North
2011-10-01T21:00:00Z,1317502800,2011,21,0,274.875,274.875,72.71766,-156.05694,1000.3,-999.00,-999.0,yes,no,no,300234010853910,UPTEMPO,PSC-UPTEMPO,Louis,North
2011-10-01T22:00:28Z,1317506429,2011,22,0,274.917,274.917,72.71766,-156.05694,1000.8,-999.00,-999.0,yes,no,no,300234010853910,UPTEMPO,PSC-UPTEMPO,Louis,North
2011-10-01T22:59:31Z,1317509971,2011,23,0,274.958,274.958,72.71766,-156.05694,1001.0,-999.00,-999.0,yes,no,no,300234010853910,UPTEMPO,PSC-UPTEMPO,Louis,North
2011-10-02T00:14:24Z,1317514464,2011,0,15,275.01,275.01,72.70344,-156.18708,1001.2,-999.00,-999.0,yes,no,no,300234010853910,UPTEMPO,PSC-UPTEMPO,Louis,North
2011-10-02T01:00:28Z,1317517229,2011,1,0,275.042,275.042,72.70344,-156.18708,1001.2,-999.00,-999.0,yes,no,no,300234010853910,UPTEMPO,PSC-UPTEMPO,Louis,North
2011-10-02T01:59:31Z,1317520771,2011,2,0,275.083,275.083,72.70344,-156.18708,1001.2,-999.00,-999.0,yes,no,no,300234010853910,UPTEMPO,PSC-UPTEMPO,Louis,North
2011-10-02T03:00:00Z,1317524400,2011,3,0,275.125,275.125,72.70632,-156.3309,1001.0,-999.00,-999.0,yes,no,no,300234010853910,UPTEMPO,PSC-UPTEMPO,Louis,North
2011-10-02T04:00:28Z,1317528029,2011,4,0,275.167,275.167,72.70632,-156.3309,1001.1,-999.00,-999.0,yes,no,no,300234010853910,UPTEMPO,PSC-UPTEMPO,Louis,North
2011-10-02T04:59:31Z,1317531571,2011,5,0,275.208,275.208,72.70632,-156.3309,1001.1,-999.00,-999.0,yes,no,no,300234010853910,UPTEMPO,PSC-UPTEMPO,Louis,North
2011-10-02T06:00:00Z,1317535200,2011,6,0,275.25,275.25,72.72414,-156.43908,1001.1,-999.00,-999.0,yes,no,no,300234010853910,UPTEMPO,PSC-UPTEMPO,Louis,North
2011-10-02T07:00:28Z,1317538829,2011,7,0,275.292,275.292,72.72414,-156.43908,1001.0,-999.00,-999.0,yes,no,no,300234010853910,UPTEMPO,PSC-UPTEMPO,Louis,North
2011-10-02T07:59:31Z,1317542371,2011,8,0,275.333,275.333,72.72414,-156.43908,1001.5,-999.00,-999.0,yes,no,no,300234010853910,UPTEMPO,PSC-UPTEMPO,Louis,North
2011-10-02T09:00:00Z,1317546000,2011,9,0,275.375,275.375,72.73008,-156.50208,1001.7,-999.00,-999.0,yes,no,no,300234010853910,UPTEMPO,PSC-UPTEMPO,Louis,North
2011-10-02T10:00:28Z,1317549629,2011,10,0,275.417,275.417,72.73008,-156.50208,1001.4,-999.00,-999.0,yes,no,no,300234010853910,UPTEMPO,PSC-UPTEMPO,Louis,North
2011-10-02T10:59:31Z,1317553171,2011,11,0,275.458,275.458,72.73008,-156.50208,1001.0,-999.00,-999.0,yes,no,no,300234010853910,UPTEMPO,PSC-UPTEMPO,Louis,North
2011-10-02T12:00:00Z,1317556800,2011,12,0,275.5,275.5,72.72468,-156.61296,1000.7,-999.00,-999.0,yes,no,no,300234010853910,UPTEMPO,PSC-UPTEMPO,Louis,North
2011-10-02T13:00:28Z,1317560429,2011,13,0,275.542,275.542,72.72468,-156.61296,1001.5,-999.00,-999.0,yes,no,no,300234010853910,UPTEMPO,PSC-UPTEMPO,Louis,North
2011-10-02T13:59:31Z,1317563971,2011,14,0,275.583,275.583,72.72468,-156.61296,1002.1,-999.00,-999.0,yes,no,no,300234010853910,UPTEMPO,PSC-UPTEMPO,Louis,North
2011-10-02T15:00:00Z,1317567600,2011,15,0,275.625,275.625,72.7281,-156.76416,1002.5,-999.00,-999.0,yes,no,no,300234010853910,UPTEMPO,PSC-UPTEMPO,Louis,North
2011-10-02T16:00:28Z,1317571229,2011,16,0,275.667,275.667,72.7281,-156.76416,1002.8,-999.00,-999.0,yes,no,no,300234010853910,UPTEMPO,PSC-UPTEMPO,Louis,North
2011-10-02T16:59:31Z,1317574771,2011,17,0,275.708,275.708,72.7281,-156.76416,1003.1,-999.00,-999.0,yes,no,no,300234010853910,UPTEMPO,PSC-UPTEMPO,Louis,North
2011-10-02T18:00:00Z,1317578400,2011,18,0,275.75,275.75,72.74682,-156.88998,1003.4,-999.00,-999.0,yes,no,no,300234010853910,UPTEMPO,PSC-UPTEMPO,Louis,North
2011-10-02T19:00:28Z,1317582029,2011,19,0,275.792,275.792,72.74682,-156.88998,1003.6,-999.00,-999.0,yes,no,no,300234010853910,UPTEMPO,PSC-UPTEMPO,Louis,North
2011-10-02T19:59:31Z,1317585571,2011,20,0,275.833,275.833,72.74682,-156.88998,1003.9,-999.00,-999.0,yes,no,no,300234010853910,UPTEMPO,PSC-UPTEMPO,Louis,North
2011-10-02T21:00:00Z,1317589200,2011,21,0,275.875,275.875,72.7632,-156.98286,1003.9,-999.00,-999.0,yes,no,no,300234010853910,UPTEMPO,PSC-UPTEMPO,Louis,North
2011-10-02T22:00:28Z,1317592829,2011,22,0,275.917,275.917,72.7632,-156.98286,1004.0,-999.00,-999.0,yes,no,no,300234010853910,UPTEMPO,PSC-UPTEMPO,Louis,North
2011-10-02T22:59:31Z,1317596371,2011,23,0,275.958,275.958,72.76842,-157.04784,1004.0,-999.00,-999.0,yes,no,no,300234010853910,UPTEMPO,PSC-UPTEMPO,Louis,North
2011-10-03T00:00:00Z,1317600000,2011,0,0,276.0,276.0,72.7713,-157.08402,1003.9,-999.00,-999.0,yes,no,no,300234010853910,UPTEMPO,PSC-UPTEMPO,Louis,North
2011-10-03T01:00:28Z,1317603629,2011,1,0,276.042,276.042,72.7713,-157.08402,1003.9,-999.00,-999.0,yes,no,no,300234010853910,UPTEMPO,PSC-UPTEMPO,Louis,North
2011-10-03T01:59:31Z,1317607171,2011,2,0,276.083,276.083,72.7713,-157.08402,1004.0,-999.00,-999.0,yes,no,no,300234010853910,UPTEMPO,PSC-UPTEMPO,Louis,North
2011-10-03T03:00:00Z,1317610800,2011,3,0,276.125,276.125,72.78768,-157.21038,1004.2,-999.00,-999.0,yes,no,no,300234010853910,UPTEMPO,PSC-UPTEMPO,Louis,North
2011-10-03T04:00:28Z,1317614429,2011,4,0,276.167,276.167,72.78768,-157.21038,1004.3,-999.00,-999.0,yes,no,no,300234010853910,UPTEMPO,PSC-UPTEMPO,Louis,North
2011-10-03T04:59:31Z,1317617971,2011,5,0,276.208,276.208,72.78768,-157.21038,1004.4,-999.00,-999.0,yes,no,no,300234010853910,UPTEMPO,PSC-UPTEMPO,Louis,North
2011-10-03T06:00:00Z,1317621600,2011,6,0,276.25,276.25,72.81504,-157.31856,1004.5,-999.00,-999.0,yes,no,no,300234010853910,UPTEMPO,PSC-UPTEMPO,Louis,North
2011-10-03T07:00:28Z,1317625229,2011,7,0,276.292,276.292,72.81504,-157.31856,1004.5,-999.00,-999.0,yes,no,no,300234010853910,UPTEMPO,PSC-UPTEMPO,Louis,North
2011-10-03T07:59:31Z,1317628771,2011,8,0,276.333,276.333,72.81504,-157.31856,1004.5,-999.00,-999.0,yes,no,no,300234010853910,UPTEMPO,PSC-UPTEMPO,Louis,North
2011-10-03T09:00:00Z,1317632400,2011,9,0,276.375,276.375,72.84528,-157.39344,1004.6,-999.00,-999.0,yes,no,no,300234010853910,UPTEMPO,PSC-UPTEMPO,Louis,North
2011-10-03T10:00:28Z,1317636029,2011,10,0,276.417,276.417,72.84528,-157.39344,1004.4,-999.00,-999.0,yes,no,no,300234010853910,UPTEMPO,PSC-UPTEMPO,Louis,North
2011-10-03T10:59:31Z,1317639571,2011,11,0,276.458,276.458,72.84528,-157.39344,1004.3,-999.00,-999.0,yes,no,no,300234010853910,UPTEMPO,PSC-UPTEMPO,Louis,North
2011-10-03T12:00:00Z,1317643200,2011,12,0,276.5,276.5,72.87408,-157.4757,1004.2,-999.00,-999.0,yes,no,no,300234010853910,UPTEMPO,PSC-UPTEMPO,Louis,North
2011-10-03T13:00:28Z,1317646829,2011,13,0,276.542,276.542,72.87408,-157.4757,1004.2,-999.00,-999.0,yes,no,no,300234010853910,UPTEMPO,PSC-UPTEMPO,Louis,North
2011-10-03T13:59:31Z,1317650371,2011,14,0,276.583,276.583,72.87408,-157.4757,1004.1,-999.00,-999.0,yes,no,no,300234010853910,UPTEMPO,PSC-UPTEMPO,Louis,North
2011-10-03T15:00:00Z,1317654000,2011,15,0,276.625,276.625,72.90936,-157.56156,1003.9,-999.00,-999.0,yes,no,no,300234010853910,UPTEMPO,PSC-UPTEMPO,Louis,North
2011-10-03T16:00:28Z,1317657629,2011,16,0,276.667,276.667,72.90936,-157.56156,1003.8,-999.00,-999.0,yes,no,no,300234010853910,UPTEMPO,PSC-UPTEMPO,Louis,North
2011-10-03T16:59:31Z,1317661171,2011,17,0,276.708,276.708,72.90936,-157.56156,1003.5,-999.00,-999.0,yes,no,no,300234010853910,UPTEMPO,PSC-UPTEMPO,Louis,North
2011-10-03T18:00:00Z,1317664800,2011,18,0,276.75,276.75,72.94734,-157.63518,1003.7,-999.00,-999.0,yes,no,no,300234010853910,UPTEMPO,PSC-UPTEMPO,Louis,North
2011-10-03T19:00:28Z,1317668429,2011,19,0,276.792,276.792,72.94734,-157.63518,1003.9,-999.00,-999.0,yes,no,no,300234010853910,UPTEMPO,PSC-UPTEMPO,Louis,North
2011-10-03T19:59:31Z,1317671971,2011,20,0,276.833,276.833,72.94734,-157.63518,1003.8,-999.00,-999.0,yes,no,no,300234010853910,UPTEMPO,PSC-UPTEMPO,Louis,North
2011-10-03T21:00:00Z,1317675600,2011,21,0,276.875,276.875,72.9882,-157.70574,1003.7,-999.00,-999.0,yes,no,no,300234010853910,UPTEMPO,PSC-UPTEMPO,Louis,North
2011-10-03T22:00:28Z,1317679229,2011,22,0,276.917,276.917,72.9882,-157.70574,1003.6,-999.00,-999.0,yes,no,no,300234010853910,UPTEMPO,PSC-UPTEMPO,Louis,North
2011-10-03T22:59:31Z,1317682771,2011,23,0,276.958,276.958,72.9882,-157.70574,1003.6,-999.00,-999.0,yes,no,no,300234010853910,UPTEMPO,PSC-UPTEMPO,Louis,North
2011-10-04T00:00:00Z,1317686400,2011,0,0,277.0,277.0,73.03374,-157.77252,1003.6,-999.00,-999.0,yes,no,no,300234010853910,UPTEMPO,PSC-UPTEMPO,Louis,North
2011-10-04T01:00:28Z,1317690029,2011,1,0,277.042,277.042,73.03374,-157.77252,1003.7,-999.00,-999.0,yes,no,no,300234010853910,UPTEMPO,PSC-UPTEMPO,Louis,North
2011-10-04T01:59:31Z,1317693571,2011,2,0,277.083,277.083,73.03374,-157.77252,1003.9,-999.00,-999.0,yes,no,no,300234010853910,UPTEMPO,PSC-UPTEMPO,Louis,North
2011-10-04T03:00:00Z,1317697200,2011,3,0,277.125,277.125,73.08522,-157.85388,1004.3,-999.00,-999.0,yes,no,no,300234010853910,UPTEMPO,PSC-UPTEMPO,Louis,North
2011-10-04T04:00:28Z,1317700829,2011,4,0,277.167,277.167,73.08522,-157.85388,1004.4,-999.00,-999.0,yes,no,no,300234010853910,UPTEMPO,PSC-UPTEMPO,Louis,North
2011-10-04T04:59:31Z,1317704371,2011,5,0,277.208,277.208,73.08522,-157.85388,1004.6,-999.00,-999.0,yes,no,no,300234010853910,UPTEMPO,PSC-UPTEMPO,Louis,North
2011-10-04T06:00:00Z,1317708000,2011,6,0,277.25,277.25,73.13526,-157.94676,1004.9,-999.00,-999.0,yes,no,no,300234010853910,UPTEMPO,PSC-UPTEMPO,Louis,North
2011-10-04T07:00:28Z,1317711629,2011,7,0,277.292,277.292,73.13526,-157.94676,1005.0,-999.00,-999.0,yes,no,no,300234010853910,UPTEMPO,PSC-UPTEMPO,Louis,North
2011-10-04T07:59:31Z,1317715171,2011,8,0,277.333,277.333,73.13526,-157.94676,1005.2,-999.00,-999.0,yes,no,no,300234010853910,UPTEMPO,PSC-UPTEMPO,Louis,North
2011-10-04T09:00:00Z,1317718800,2011,9,0,277.375,277.375,73.1898,-158.0778,1005.4,-999.00,-999.0,yes,no,no,300234010853910,UPTEMPO,PSC-UPTEMPO,Louis,North
2011-10-04T10:00:28Z,1317722429,2011,10,0,277.417,277.417,73.1898,-158.0778,1005.6,-999.00,-999.0,yes,no,no,300234010853910,UPTEMPO,PSC-UPTEMPO,Louis,North
2011-10-04T10:59:31Z,1317725971,2011,11,0,277.458,277.458,73.1898,-158.0778,1005.9,-999.00,-999.0,yes,no,no,300234010853910,UPTEMPO,PSC-UPTEMPO,Louis,North
2011-10-04T12:00:00Z,1317729600,2011,12,0,277.5,277.5,73.23966,-158.24286,1006.2,-999.00,-999.0,yes,no,no,300234010853910,UPTEMPO,PSC-UPTEMPO,Louis,North
2011-10-04T13:00:28Z,1317733229,2011,13,0,277.542,277.542,73.23966,-158.24286,1006.3,-999.00,-999.0,yes,no,no,300234010853910,UPTEMPO,PSC-UPTEMPO,Louis,North
2011-10-04T13:59:31Z,1317736771,2011,14,0,277.583,277.583,73.23966,-158.24286,1006.4,-999.00,-999.0,yes,no,no,300234010853910,UPTEMPO,PSC-UPTEMPO,Louis,North
2011-10-04T15:00:00Z,1317740400,2011,15,0,277.625,277.625,73.27998,-158.43042,1006.4,-999.00,-999.0,yes,no,no,300234010853910,UPTEMPO,PSC-UPTEMPO,Louis,North
2011-10-04T16:00:28Z,1317744029,2011,16,0,277.667,277.667,73.27998,-158.43042,1006.6,-999.00,-999.0,yes,no,no,300234010853910,UPTEMPO,PSC-UPTEMPO,Louis,North
2011-10-04T16:59:31Z,1317747571,2011,17,0,277.708,277.708,73.27998,-158.43042,1006.8,-999.00,-999.0,yes,no,no,300234010853910,UPTEMPO,PSC-UPTEMPO,Louis,North